Location: Kumla
(59.1265°N, 15.1401°E)
Time: 16:18:05
(UTC+01:00)

Transit 2A - Pass Details

Date: 09 December 2023
Orbit: 600 x 953 km, 66.7° (Epoch: 27 February)

Event Time Altitude Azimuth Distance (km) Brightness Sun altitude
Rises 18:49:31 0° 286° (WNW) 2,971 10.2 -26.8°
Reaches altitude 10° 18:52:05 10° 297° (WNW) 2,020 9.0 -27.1°
Enters shadow 18:55:16 29° 338° (NNW) 1,150 7.1 -27.5°
Maximum altitude 18:56:06 31° 360° (N) 1,090 - -27.7°
Drops below altitude 10° 19:00:00 10° 63° (ENE) 1,954 - -28.2°
Sets 19:02:26 0° 74° (ENE) 2,856 - -28.5°
